STARLINK-37666, 69046

Orbit data source: Space-Track

STARLINK-37666, 69046 is a payload satellite owned by SpaceX/Seattle (US) in SSO that was launched on Wed, 06 May 2026 UTC via an FALCON 9 launch vehicle from the Air Force Western Test Range (AFWTR). Payload-class satellites include a variety of spacecraft equipped with specific instruments for various scientific and technological missions. These include communications satellites like Starlink; space stations such as the ISS; scientific satellites like the Hubble; Earth observation satellites from companies like Planet Labs, Umbra, and HawkEye 360; GPS; miniature CubeSats for education and research; and military/defense satellites.

Loading next visibility...
Identifier
69046, 2026-101X
Orbit
SSO
Country
Flag of USUS
Related business
Manufacturer
SpaceX/Seattle
Mission
Operational Commercial Communications
Bus & Motor
STARLINK V2MO, Unknown motor
Mass
575 kg wet, ~530 kg dry
Launch date (UTC)
2026-05-06 (3 months ago)
Launch vehicle
FALCON 9
Launch site
Air Force Western Test Range (AFWTR)
Object type
Payload
Rocket body
Debris
Shape & HBR
Box + 2 Pan, 17.7 m
Radar Cross Section
36.964 m², Large (>1 m²)

Expand to show TLE details & history
Last TLE update: 16 hours ago

TLE from 16 hours ago
0 STARLINK-37666
1 69046U 26101X   26206.53387782  .00019268  00000-0  59768-3 0  9998
2 69046  97.2865  60.9014 0001797  95.6572 264.4876 15.33441905 12456
Epoch: 2026-07-25T12:48Z
TLE epoch observation values (Epoch: 2026-07-25T12:48:47.043Z)
Latitude
-0°
Longitude
-74.5394°
Altitude
468.783 km
Speed
7.632 km/s
True Right ascension
04h 03m 36s
True Declination
0° 00' 00"
Sunlit
Object was in daylight at epoch
Visualization orbit readout
Latitude
Unknown
Longitude
Unknown
Altitude
Unknown
Speed
Unknown
Apparent Right ascension
Unknown
Apparent Declination
Unknown
Sunlit
N/A
Visualization observer readout
Local Sidereal Time
18:03:41
Azimuth
Unknown
Elevation
Unknown
Doppler factor
Unknown
Orbital elements
Apogee altitude
463.724 km
Perigee altitude
461.266 km
Semi-major axis
6,840.632 km
Eccentricity
0.00018
Inclination
97.2865°
RAAN
60.9014°
Arg. of periapsis
95.6572°
True anomaly
264.4671°
Mean anomaly
264.4876°
Eccentric anomaly
264.47735°
Mean motion
3.83618 °/min
Orbital period
93.84 mins
BSTAR
0.00059768
Loading maneuver chart data...
Computing Atmospheric mass density...
Loading historical data...
Loading historical data...
Loading historical data...
Loading historical data...
Loading historical data...
Loading historical data...
Loading historical data...

Documentation

Showing up to 5 results
|